Stella Prima — PHEA — position and weather

sailwx.info

Track history (hours):
 
Tides and Currents Weather Stations Pressure Air Temp Water Temp Dewpoint Dewpoint Depression Visibility Wind Speed Wind Dir Waves Ship Positions

Stella Prima

Last reported at 2017-Feb-24 05:04 UTC. Time now 2017-Feb-24 17:38 UTC.
Position N 49°46' W 003°25'.

Length 100 m; beam 21 m.

Type: Cargo ship. MMSI: 246460000.

Date/timePositionNaut miles runAvg speedWind from/ knotsBaromVisibWave heightAir tempDewpointWater temp
2017-Feb-24 05:04N 49°46' W 003°25'510.0
2017-Feb-24 04:33N 49°49' W 003°19'1110.4
2017-Feb-24 03:32N 49°54' W 003°05'1110.9
2017-Feb-24 02:33N 49°59' W 002°50'69 9.2
2017-Feb-23 19:06N 49°41' W 001°07'5 9.5
2017-Feb-23 18:33N 49°37' W 001°01'2 0.4
2017-Feb-23 13:19N 49°36' W 000°59'0 0.1
2017-Feb-23 12:28N 49°36' W 000°59'0 0.0
2017-Feb-23 11:31N 49°36' W 000°60'0 0.0
2017-Feb-23 10:28N 49°36' W 000°60'0 0.0
2017-Feb-23 09:31N 49°36' W 000°60'0 0.1
2017-Feb-23 08:22N 49°36' W 000°60'0 0.1
2017-Feb-23 07:31N 49°36' W 000°60'0 0.0
2017-Feb-23 06:25N 49°36' W 000°60'0 0.0
2017-Feb-23 05:25N 49°36' W 000°60'0 0.0
2017-Feb-23 04:22N 49°36' W 000°60'0 0.0
2017-Feb-23 03:31N 49°36' W 000°60'0 0.0
2017-Feb-23 02:31N 49°36' W 000°60'0 0.0
2017-Feb-23 01:31N 49°36' W 000°60'0 0.0
2017-Feb-23 00:28N 49°36' W 000°60'0 0.0
2017-Feb-22 23:31N 49°36' W 000°60'0 0.0
2017-Feb-22 22:25N 49°36' W 000°60'0 0.0
2017-Feb-22 21:31N 49°36' W 000°60'0 0.0
2017-Feb-22 20:31N 49°36' W 000°60'0 0.0
2017-Feb-22 19:31N 49°36' W 000°60'0 0.3
2017-Feb-22 18:33N 49°36' W 000°59'12 9.5
2017-Feb-22 17:20N 49°32' W 000°42'810.4
2017-Feb-22 16:33N 49°31' W 000°30'1110.9
2017-Feb-22 15:34N 49°31' W 000°13'1010.4
2017-Feb-22 14:33N 49°27' E 000°02'1211.8
2017-Feb-22 13:33N 49°26' E 000°20'10 9.8
2017-Feb-22 12:33N 49°26' E 000°35'9 7.7
2017-Feb-22 11:24N 49°29' E 000°48'  
2017-Feb-17 04:13N 49°29' E 000°48'0 0.0
2017-Feb-16 17:17N 49°29' E 000°48'5 5.2
2017-Feb-16 16:15N 49°29' E 000°40'5 7.2
2017-Feb-16 15:33N 49°28' E 000°33'9 9.2
2017-Feb-16 14:33N 49°26' E 000°19'1211.9
2017-Feb-16 13:33N 49°27' E 000°01'4 3.8
2017-Feb-16 12:34N 49°28' W 000°05'0 0.0
2017-Feb-16 11:34N 49°28' W 000°05'0 0.0
2017-Feb-16 10:34N 49°28' W 000°05'0 0.0
2017-Feb-16 09:34N 49°28' W 000°05'0 0.0
2017-Feb-16 08:34N 49°28' W 000°05'0 0.0
2017-Feb-16 07:34N 49°28' W 000°05'4 3.5
2017-Feb-16 06:34N 49°30' W 000°10'9 8.7
2017-Feb-16 05:33N 49°33' W 000°22'9 8.6
2017-Feb-16 04:34N 49°37' W 000°34'1211.7
2017-Feb-16 03:33N 49°41' W 000°51'1312.6
2017-Feb-16 02:33N 49°47' W 001°09'6315.6
2017-Feb-15 22:32N 49°49' W 002°46'1616.2
2017-Feb-15 21:33N 49°43' W 003°09'1615.5
2017-Feb-15 20:33N 49°39' W 003°32'  
Track history (hours):
 
Tides and Currents Weather Stations Pressure Air Temp Water Temp Dewpoint Dewpoint Depression Visibility Wind Speed Wind Dir Waves Ship Positions

Stella Prima

Last reported at 2017-Feb-24 05:04 UTC. Time now 2017-Feb-24 17:38 UTC.
Position N 49°46' W 003°25'.

Length 100 m; beam 21 m.

Type: Cargo ship. MMSI: 246460000.

Date/timePositionNaut miles runAvg speedWind from/ knotsBaromVisibWave heightAir tempDewpointWater temp
2017-Feb-24 05:04N 49°46' W 003°25'510.0
2017-Feb-24 04:33N 49°49' W 003°19'1110.4
2017-Feb-24 03:32N 49°54' W 003°05'1110.9
2017-Feb-24 02:33N 49°59' W 002°50'69 9.2
2017-Feb-23 19:06N 49°41' W 001°07'5 9.5
2017-Feb-23 18:33N 49°37' W 001°01'2 0.4
2017-Feb-23 13:19N 49°36' W 000°59'0 0.1
2017-Feb-23 12:28N 49°36' W 000°59'0 0.0
2017-Feb-23 11:31N 49°36' W 000°60'0 0.0
2017-Feb-23 10:28N 49°36' W 000°60'0 0.0
2017-Feb-23 09:31N 49°36' W 000°60'0 0.1
2017-Feb-23 08:22N 49°36' W 000°60'0 0.1
2017-Feb-23 07:31N 49°36' W 000°60'0 0.0
2017-Feb-23 06:25N 49°36' W 000°60'0 0.0
2017-Feb-23 05:25N 49°36' W 000°60'0 0.0
2017-Feb-23 04:22N 49°36' W 000°60'0 0.0
2017-Feb-23 03:31N 49°36' W 000°60'0 0.0
2017-Feb-23 02:31N 49°36' W 000°60'0 0.0
2017-Feb-23 01:31N 49°36' W 000°60'0 0.0
2017-Feb-23 00:28N 49°36' W 000°60'0 0.0
2017-Feb-22 23:31N 49°36' W 000°60'0 0.0
2017-Feb-22 22:25N 49°36' W 000°60'0 0.0
2017-Feb-22 21:31N 49°36' W 000°60'0 0.0
2017-Feb-22 20:31N 49°36' W 000°60'0 0.0
2017-Feb-22 19:31N 49°36' W 000°60'0 0.3
2017-Feb-22 18:33N 49°36' W 000°59'12 9.5
2017-Feb-22 17:20N 49°32' W 000°42'810.4
2017-Feb-22 16:33N 49°31' W 000°30'1110.9
2017-Feb-22 15:34N 49°31' W 000°13'1010.4
2017-Feb-22 14:33N 49°27' E 000°02'1211.8
2017-Feb-22 13:33N 49°26' E 000°20'10 9.8
2017-Feb-22 12:33N 49°26' E 000°35'9 7.7
2017-Feb-22 11:24N 49°29' E 000°48'  
2017-Feb-17 04:13N 49°29' E 000°48'0 0.0
2017-Feb-16 17:17N 49°29' E 000°48'5 5.2
2017-Feb-16 16:15N 49°29' E 000°40'5 7.2
2017-Feb-16 15:33N 49°28' E 000°33'9 9.2
2017-Feb-16 14:33N 49°26' E 000°19'1211.9
2017-Feb-16 13:33N 49°27' E 000°01'4 3.8
2017-Feb-16 12:34N 49°28' W 000°05'0 0.0
2017-Feb-16 11:34N 49°28' W 000°05'0 0.0
2017-Feb-16 10:34N 49°28' W 000°05'0 0.0
2017-Feb-16 09:34N 49°28' W 000°05'0 0.0
2017-Feb-16 08:34N 49°28' W 000°05'0 0.0
2017-Feb-16 07:34N 49°28' W 000°05'4 3.5
2017-Feb-16 06:34N 49°30' W 000°10'9 8.7
2017-Feb-16 05:33N 49°33' W 000°22'9 8.6
2017-Feb-16 04:34N 49°37' W 000°34'1211.7
2017-Feb-16 03:33N 49°41' W 000°51'1312.6
2017-Feb-16 02:33N 49°47' W 001°09'6315.6
2017-Feb-15 22:32N 49°49' W 002°46'1616.2
2017-Feb-15 21:33N 49°43' W 003°09'1615.5
2017-Feb-15 20:33N 49°39' W 003°32'  

Dump ship's entire track history